Asheville, NC

11:11 PM EST on January 18, 2018 (GMT -0500)
Asheville Regional

Weather History for KAVL - November, 2012

Change the Weather History Date:

Tuesday, November 27, 2012

  Actual Average Record
Temperature  
Mean Temperature 47 °F 44 °F  
Max Temperature 52 °F 55 °F 72 °F (2001)
Min Temperature 42 °F 33 °F 11 °F (1930)
Degree Days  
Heating Degree Days 18 21  
Month to date heating degree days 524 466  
Since 1 July heating degree days 836 801  
Cooling Degree Days 0 0  
Month to date cooling degree days 0 0  
Year to date cooling degree days 1022 862  
Moisture  
Dew Point 38 °F    
Average Humidity 64    
Maximum Humidity 89    
Minimum Humidity 38    
Precipitation  
Precipitation T in 0.13 in 1.07 in (1988)
Month to date precipitation 0.85 3.23  
Year to date precipitation 40.28 41.56  
Snow  
Snow 0.00 in 0.00 in 2.00 in (1912)
Month to date snowfall 0.0 0.1  
Since 1 July snowfall 0.0 0.1  
Since 1 September snowfall 0.0 0.1  
Snow Depth 0.00 in    
Sea Level Pressure  
Sea Level Pressure 30.14 in    
Wind  
Wind Speed 8 mph (NNW)    
Max Wind Speed 21 mph    
Max Gust Speed 26 mph    
Visibility 10 miles    
Events      
T = Trace of Precipitation, MM = Missing Value Source: NWS Daily Summary

Daily Weather History Graph

Daily Weather History Graph

Search for Another Location

Airport or City:

Trip Planner

Search our weather history database for the weather conditions in past years. The results will help you decide how hot, cold, wet, or windy it might be!

Date:

Astronomy

Nov. 27, 2012 Rise Set
Actual Time 7:17 AM EST 5:18 PM EST
Civil Twilight 6:49 AM EST 5:45 PM EST
Nautical Twilight 6:18 AM EST 6:17 PM EST
Astronomical Twilight 5:47 AM EST 6:47 PM EST
Moon 4:48 PM EST (11/27) 6:22 AM EST (11/27)
Length of Visible Light 10h 55m
Length of Day
10h 00m
Waxing Gibbous, 99% of the Moon is Illuminated
Nov 27
Waxing Gibbous
Nov 28
Full
Dec 6
Last Quarter
Dec 13
New
Dec 20
First Quarter

Hourly Weather History & Observations

Time (EST) Temp. Windchill Dew Point Humidity Pressure Visibility Wind Dir Wind Speed Gust Speed Precip Events Conditions
12:54 AM 52.0 °F - 27.0 °F 38% 30.13 in 10.0 mi Calm Calm - N/A   Overcast
1:54 AM 48.9 °F - 30.0 °F 48% 30.11 in 10.0 mi Calm Calm - 0.00 in   Overcast
2:54 AM 45.0 °F - 30.9 °F 58% 30.10 in 10.0 mi Calm Calm - N/A   Mostly Cloudy
3:54 AM 46.9 °F - 35.1 °F 63% 30.09 in 10.0 mi NNW 4.6 mph - N/A   Overcast
4:54 AM 45.0 °F - 36.0 °F 71% 30.10 in 10.0 mi Calm Calm - 0.00 in   Overcast
5:54 AM 45.0 °F - 36.0 °F 71% 30.09 in 10.0 mi Calm Calm - N/A   Mostly Cloudy
6:54 AM 45.0 °F - 37.0 °F 74% 30.09 in 10.0 mi Calm Calm - N/A   Overcast
7:54 AM 44.1 °F 40.1 °F 37.0 °F 76% 30.10 in 10.0 mi NNW 6.9 mph - N/A   Mostly Cloudy
8:54 AM 46.9 °F - 39.0 °F 74% 30.12 in 10.0 mi North 9.2 mph - N/A   Overcast
9:54 AM 48.9 °F - 42.1 °F 77% 30.12 in 10.0 mi NNW 5.8 mph - 0.00 in   Overcast
10:54 AM 51.1 °F - 41.0 °F 68% 30.12 in 10.0 mi NNW 9.2 mph - N/A   Mostly Cloudy
11:54 AM 51.1 °F - 42.1 °F 71% 30.12 in 10.0 mi NNW 11.5 mph - N/A   Overcast
12:18 PM 50.0 °F - 44.6 °F 82% 30.14 in 10.0 mi North 13.8 mph 21.9 mph N/A   Overcast
12:28 PM 50.0 °F - 44.6 °F 82% 30.14 in 10.0 mi NNW 16.1 mph - N/A   Overcast
12:54 PM 50.0 °F - 43.0 °F 77% 30.11 in 10.0 mi North 15.0 mph 24.2 mph N/A   Overcast
1:54 PM 48.9 °F - 42.1 °F 77% 30.11 in 10.0 mi NNW 15.0 mph 23.0 mph N/A   Overcast
2:54 PM 48.2 °F - 41.0 °F 76% 30.12 in 10.0 mi NNW 13.8 mph - N/A   Overcast
3:54 PM 48.0 °F - 41.0 °F 77% 30.12 in 10.0 mi North 13.8 mph 19.6 mph N/A   Overcast
4:54 PM 46.0 °F 41.0 °F 39.9 °F 79% 30.14 in 10.0 mi North 10.4 mph - N/A   Overcast
5:54 PM 45.0 °F 40.1 °F 39.0 °F 80% 30.16 in 10.0 mi North 9.2 mph - N/A   Mostly Cloudy
6:17 PM 44.6 °F 40.7 °F 39.2 °F 81% 30.16 in 10.0 mi North 6.9 mph - N/A   Mostly Cloudy
6:54 PM 44.1 °F 37.4 °F 39.0 °F 82% 30.17 in 10.0 mi NNW 13.8 mph - N/A   Overcast
7:54 PM 43.0 °F 37.2 °F 39.0 °F 86% 30.19 in 10.0 mi NNW 10.4 mph - N/A   Scattered Clouds
8:52 PM 42.8 °F 38.6 °F 39.2 °F 87% 30.20 in 10.0 mi North 6.9 mph - N/A   Mostly Cloudy
8:54 PM 43.0 °F 38.8 °F 39.0 °F 86% 30.20 in 10.0 mi North 6.9 mph - N/A   Mostly Cloudy
9:54 PM 44.1 °F 38.6 °F 39.0 °F 82% 30.20 in 10.0 mi North 10.4 mph - N/A   Overcast
10:08 PM 42.8 °F 37.0 °F 37.4 °F 81% 30.21 in 10.0 mi NNW 10.4 mph - N/A   Overcast
10:41 PM 42.8 °F 36.2 °F 37.4 °F 81% 30.21 in 10.0 mi NNW 12.7 mph - N/A   Overcast
10:54 PM 43.0 °F 36.0 °F 37.9 °F 82% 30.20 in 10.0 mi NNW 13.8 mph - N/A   Overcast
11:54 PM 43.0 °F 37.2 °F 37.0 °F 80% 30.22 in 10.0 mi NNW 10.4 mph - N/A   Overcast